User: anonymous   Login
Location: Elende
(51.4317°N, 10.6316°E)
Time: 23:00:55
(UTC+00:00)
Language:

H-2A R/B - Orbit

View from above orbital plane
View from above orbital plane
View from above satellite
View from above satellite

Ground track
Ground track

The orbit data is extracted from the following two-line orbital elements,

1 27601U 02056E   20337.08400459  .00000123  00000-0  58965-4 0  9997
2 27601  98.2090   4.0894 0072973 137.6577 279.3910 14.31987439938689
Epoch (UTC): 02 December 2020 02:00:57
Eccentricity: 0.0072973
inclination: 98.2090°
perigee height: 733 km
apogee height: 837 km
right ascension of ascending node: 4.0894°
argument of perigee: 137.6577°
revolutions per day: 14.31987439
mean anomaly at epoch: 279.3910°
orbit number at epoch: 93868

The dashed part of the orbit path shows where the satellite is in the earth's shadow,  

DLR